Time,TemperatureF,DewpointF,PressureIn,WindDirection,WindDirectionDegrees,WindSpeedMPH,WindSpeedGustMPH,Humidity,HourlyPrecipIn,Conditions,Clouds,dailyrainin,SoftwareType,DateUTC
2013-01-08 00:00:00,48.0,46.0,-100.00,South,178,5.0,-999.0,92,-99.99,,,-99.99,,2013-01-08 08:00:00,
2013-01-08 01:00:00,48.0,46.0,-100.00,SSW,193,3.0,-999.0,92,-99.99,,,-99.99,,2013-01-08 09:00:00,
2013-01-08 02:00:00,48.0,45.0,-100.00,SW,230,5.0,-999.0,91,-99.99,,,-99.99,,2013-01-08 10:00:00,
2013-01-08 03:00:00,49.0,46.0,-100.00,SW,217,6.0,-999.0,91,-99.99,,,-99.99,,2013-01-08 11:00:00,
2013-01-08 04:00:00,48.0,46.0,-100.00,SSE,167,2.0,-999.0,92,-99.99,,,-99.99,,2013-01-08 12:00:00,
2013-01-08 04:53:00,48.0,46.0,-100.00,SSE,167,2.0,-999.0,92,-99.99,,,-99.99,,2013-01-08 12:53:00,
2013-01-08 05:00:00,47.0,45.0,-100.00,SE,136,2.0,-999.0,94,-99.99,,,-99.99,,2013-01-08 13:00:00,
2013-01-08 07:00:00,50.0,49.0,-100.00,South,188,8.0,-999.0,97,-99.99,,,-99.99,,2013-01-08 15:00:00,
2013-01-08 08:00:00,51.0,50.0,-100.00,SSW,200,9.0,-999.0,96,-99.99,,,-99.99,,2013-01-08 16:00:00,
2013-01-08 09:00:00,51.0,50.0,-100.00,SSW,207,9.0,-999.0,95,-99.99,,,-99.99,,2013-01-08 17:00:00,
2013-01-08 10:00:00,52.0,50.0,-100.00,SSW,199,9.0,-999.0,93,-99.99,,,-99.99,,2013-01-08 18:00:00,
2013-01-08 11:00:00,52.0,49.0,-100.00,SSW,196,9.0,-999.0,90,-99.99,,,-99.99,,2013-01-08 19:00:00,
2013-01-08 12:00:00,53.0,50.0,-100.00,SSW,196,10.0,-999.0,88,-99.99,,,-99.99,,2013-01-08 20:00:00,
2013-01-08 14:00:00,55.0,51.0,-100.00,SSW,202,10.0,-999.0,85,-99.99,,,-99.99,,2013-01-08 22:00:00,
2013-01-08 14:53:00,55.0,51.0,-100.00,SSW,202,10.0,-999.0,85,-99.99,,,-99.99,,2013-01-08 22:53:00,
2013-01-08 16:00:00,-999.0,-99.9,-100.00,SSW,197,14.0,-999.0,91,-99.99,,,-99.99,,2013-01-09 00:00:00,
2013-01-08 17:00:00,-999.0,-99.9,-100.00,SSW,196,14.0,-999.0,86,-99.99,,,-99.99,,2013-01-09 01:00:00,
2013-01-08 18:00:00,-999.0,-99.9,-100.00,SSW,200,14.0,-999.0,82,-99.99,,,-99.99,,2013-01-09 02:00:00,
2013-01-08 18:53:00,-999.0,-99.9,-100.00,SSW,200,14.0,-999.0,82,-99.99,,,-99.99,,2013-01-09 02:53:00,
2013-01-08 19:00:00,-999.0,-99.9,-100.00,SSW,197,12.0,-999.0,81,-99.99,,,-99.99,,2013-01-09 03:00:00,
2013-01-08 20:00:00,-999.0,-99.9,-100.00,South,186,8.0,-999.0,80,-99.99,,,-99.99,,2013-01-09 04:00:00,
2013-01-08 21:00:00,-999.0,-99.9,-100.00,SSE,165,6.0,-999.0,81,-99.99,,,-99.99,,2013-01-09 05:00:00,
2013-01-08 22:00:00,-999.0,-99.9,-100.00,South,172,6.0,-999.0,81,-99.99,,,-99.99,,2013-01-09 06:00:00,
2013-01-08 22:53:00,-999.0,-99.9,-100.00,South,172,6.0,-999.0,81,-99.99,,,-99.99,,2013-01-09 06:53:00,
2013-01-08 23:00:00,-999.0,-99.9,-100.00,South,184,7.0,-999.0,81,-99.99,,,-99.99,,2013-01-09 07:00:00,
2013-01-08 23:53:00,-999.0,-99.9,-100.00,South,184,7.0,-999.0,81,-99.99,,,-99.99,,2013-01-09 07:53:00,